This demonstration page uses our WeatherBlox Daily Observations layout. Learn more.

Left ArrowRight Arrow

38.80484, -77.04692

Hourly Observations for July 16, 2018

Temp ( °F °C ) Dew Point ( °F °C ) Humidity (%) Winds ( mph kmh ) Pressure ( in mb ) Visibility ( mi km ) Precip ( " mm )
12:52 am 00:52 Partly Cloudy 79 26.1 71 21.7 77 77 Calm 30.01 1016 10 16 0.00 0.00
1:52 am 01:52 Partly Cloudy 78 25.6 70 21.1 76 76 SW 5 7 30.01 1016 10 16 0.00 0.00
2:52 am 02:52 Partly Cloudy 78 25.6 70 21.1 76 76 W 5 7 30.01 1016 10 16 0.00 0.00
3:52 am 03:52 Partly Cloudy 77 25 70 21.1 79 79 Calm 30.00 1016 10 16 0.00 0.00
4:52 am 04:52 Mostly Cloudy 76 24.4 69 20.6 79 79 Calm 29.99 1016 10 16 0.00 0.00
5:52 am 05:52 Mostly Cloudy 76 24.4 69 20.6 79 79 Calm 30.00 1016 10 16 0.00 0.00
6:52 am 06:52 Partly Cloudy 78 25.6 70 21.1 76 76 Calm 30.01 1016 10 16 0.00 0.00
7:52 am 07:52 Mostly Sunny 80 26.7 70 21.1 71 71 Calm 30.01 1016 10 16 0.00 0.00
8:52 am 08:52 Mostly Sunny 82 27.8 71 21.7 69 69 SSE 7 11 30.01 1016 10 16 0.00 0.00
9:52 am 09:52 Mostly Sunny 84 28.9 72 22.2 67 67 SSE 5 7 30.00 1016 10 16 0.00 0.00
10:52 am 10:52 Mostly Sunny 87 30.6 73 22.8 63 63 SSE 6 9 30.00 1016 10 16 0.00 0.00
11:52 am 11:52 Mostly Sunny 90 32.2 72 22.2 56 56 SE 3 6 29.99 1016 10 16 0.00 0.00
12:52 pm 12:52 Mostly Sunny 92 33.3 73 22.8 54 54 S 10 17 29.98 1015 10 16 0.00 0.00
1:52 pm 13:52 Partly Cloudy 94 34.4 71 21.7 48 48 SSE 10 17 29.96 1015 10 16 0.00 0.00
2:52 pm 14:52 Partly Cloudy 96 35.6 70 21.1 43 43 S 10 17 29.94 1014 10 16 0.00 0.00
3:17 pm 15:17 Partly Cloudy 97 36.1 69 20.6 40 40 S 14 22 29.91 1013 10 16 0.00 0.00
3:52 pm 15:52 Partly Cloudy 95 35 72 22.2 47 47 S 15 24 29.91 1013 10 16 0.00 0.00
4:45 pm 16:45 Mostly Cloudy 90 32.2 69 20.6 50 50 WSW 24 39 29.94 1014 10 16 0.00 0.00
4:52 pm 16:52 Mostly Cloudy 87 30.6 67 19.4 51 51 WSW 22 35 29.93 1014 10 16 0.00 0.00
4:59 pm 16:59 Mostly Cloudy 86 30 68 20 55 55 WSW 18 30 29.94 1014 10 16 0.00 0.00
5:18 pm 17:18 Cloudy with Light Rain 84 28.9 66 18.9 55 55 SW 15 24 29.94 1014 10 16 0.00 0.03
5:52 pm 17:52 Mostly Cloudy 84 28.9 67 19.4 57 57 S 6 9 29.92 1013 10 16 0.00 0.03
6:01 pm 18:01 Cloudy 84 28.9 66 18.9 55 55 S 7 11 29.91 1013 10 16 0.00 0.00
6:52 pm 18:52 Cloudy 84 28.9 70 21.1 63 63 SSE 7 11 29.93 1014 10 16 0.00 0.00
7:52 pm 19:52 Sunny with Thunderstorms 84 28.9 73 22.8 70 70 S 9 15 29.92 1013 10 16 0.00 0.00
8:13 pm 20:13 Cloudy with Nearby Thunderstorms 84 28.9 73 22.8 70 70 SSE 6 9 29.91 1013 10 16 0.00 0.00
8:21 pm 20:21 Cloudy 84 28.9 73 22.8 70 70 SSE 5 7 29.91 1013 10 16 0.00 0.00
8:52 pm 20:52 Cloudy 83 28.3 72 22.2 70 70 S 7 11 29.93 1013 10 16 0.00 0.00
9:52 pm 21:52 Mostly Cloudy 83 28.3 69 20.6 63 63 S 6 9 29.93 1014 10 16 0.00 0.00
10:52 pm 22:52 Mostly Cloudy 82 27.8 72 22.2 72 72 S 7 11 29.93 1014 10 16 0.00 0.00
11:52 pm 23:52 Mostly Cloudy 81 27.2 72 22.2 74 74 S 8 13 29.93 1014 10 16 0.00 0.00

Powered by AerisWeather